Location: Newark
(43.6583°N, 1.6617°E)
Time: 19:46:09
(UTC+00:00)

ISS - Visible Passes

Search period start: 21 July 2019 00:00
Search period end: 31 July 2019 00:00
Orbit: 409 x 418 km, 51.6° (Epoch: 21 July)

Date Brightness Start Highest point End Pass type
(mag) Time Alt. Az. Time Alt. Az. Time Alt. Az.
21 Jul -1.7 00:15:15 10° NW 00:18:01 28° N 00:18:01 28° N visible
21 Jul -3.0 20:10:48 10° WSW 20:14:06 57° NNW 20:17:24 10° NE visible
21 Jul -1.2 21:48:36 10° WNW 21:51:17 22° N 21:53:58 10° NE visible
21 Jul -1.5 23:25:58 10° NW 23:28:44 24° NNE 23:29:25 22° NNE visible
22 Jul -1.4 20:58:56 10° WNW 21:01:46 25° NNW 21:04:37 10° NE visible
22 Jul -1.2 22:36:35 10° NW 22:39:14 21° N 22:41:12 13° NE visible
23 Jul -1.1 00:13:11 10° NW 00:14:00 16° NW 00:14:00 16° NW visible
23 Jul -1.8 20:09:15 10° W 20:12:17 31° NNW 20:15:20 10° NE visible
23 Jul -1.1 21:47:06 10° NW 21:49:41 20° N 21:52:15 10° NE visible
23 Jul -1.6 23:23:55 10° NW 23:25:57 27° NNW 23:25:57 27° NNW visible
24 Jul -1.2 20:57:31 10° NW 21:00:07 21° N 21:02:43 10° NE visible
24 Jul -1.9 22:34:37 10° NW 22:37:33 27° NNE 22:37:59 26° NNE visible
25 Jul -1.3 20:07:50 10° WNW 20:10:33 22° N 20:13:17 10° NE visible
25 Jul -1.5 21:45:16 10° NW 21:48:00 23° N 21:50:04 14° ENE visible
25 Jul -1.2 23:21:48 10° NW 23:22:53 19° NW 23:22:53 19° NW visible
26 Jul -1.3 20:55:49 10° NW 20:58:27 21° N 21:01:04 10° ENE visible
26 Jul -2.3 22:32:29 10° NW 22:35:01 38° NNW 22:35:01 38° NNW visible
27 Jul -1.3 20:06:17 10° NW 20:08:51 20° N 20:11:25 10° NE visible
27 Jul -2.3 21:43:10 10° NW 21:46:14 32° NNE 21:47:10 27° NE visible
27 Jul -0.7 23:19:47 10° WNW 23:19:58 11° WNW 23:19:58 11° WNW visible
28 Jul -1.8 20:53:49 10° NW 20:56:42 26° NNE 20:59:21 11° ENE visible
28 Jul -2.0 22:30:20 10° WNW 22:32:09 30° WNW 22:32:09 30° WNW visible
29 Jul -1.6 20:04:23 10° NW 20:07:06 22° N 20:09:48 10° ENE visible
29 Jul -3.5 21:40:57 10° NW 21:44:16 60° NNE 21:44:22 60° NE visible
30 Jul -2.8 20:51:35 10° NW 20:54:47 40° NNE 20:56:36 21° E visible
30 Jul -1.3 22:28:23 10° WNW 22:29:25 17° W 22:29:25 17° W visible
